星链-3106 (STARLINK-3106 )

导读 | 星芒AI

STARLINK-3106 是 SpaceX Starlink 项目中的一颗低轨通信卫星,属于第三代星链卫星(v1.5 或 v2 版本)。该卫星由猎鹰9号火箭发射入轨,旨在为全球用户提供高速、低延迟的互联网服务。它运行在约 550 公里的轨道高度,配备先进相控阵天线和激光通信系统,以提升网络性能与稳定性。作为星链星座的重要组成部分,STARLINK-3106 有助于扩大覆盖范围,特别是在偏远和网络基础设施薄弱的地区。

基本信息
目录编号:
49164
目录名称:
STARLINK-3106
国际标识:
2021-082AL
轨道中心:
EARTH
卫星名称:
星链-3106
卫星全名:
星链-3106 (STARLINK-3106 )
卫星状态:
在轨 (已飞行1508 天)
发射日期:
2021-09-14 UTC
国别 :
美国 (US)
星等 :
--
轨道信息
数据来源 国际轨道数据
星历时间: 2025-10-31T14:11:14+0800
13小时前
查看轨道信息
半长轴: 6950.188km
偏心率: 0.0002658
轨道倾角: 70.002°
近地点辐角 273.591°
升交点赤经 240.791°
平近点角 86.495°
近地点: 570.205km
远地点: 573.901km
周期: 96.107分钟
每日圈数: 14.983318
详细信息
固有亮度:
5
最大亮度:
2.5
卫星平台:
Starlink v1.5
覆盖范围:
全球
运营商:
太空探索技术公司
运营商所在国:
美国
制造商(研发单位):
太空探索技术公司
制造商所在国:
美国
使用方式:
暂无
卫星简介
星链(Starlink)计划是由太空探索技术公司(SpaceX)提出的一个巨型低轨卫星互联网星座项目,计划在2019年至2024年间在太空搭建由约1.2万颗卫星组成的“星链”网络,其中1584颗将部署在地球上空550千米处的近地轨道,并从2020年开始工作。该卫星仍在工作。
2D轨道图
3D轨道图
轨道高度分析图
轨道倾角分析图
轨道综合分析图
查看轨道综合分析图